Hourly Data Report for October 05, 2017

All times are specified in Local Standard Time (LST). Add 1 hour to adjust for Daylight Saving Time where and when it is observed.

BEAVER ISLAND (AUT)
NOVA SCOTIA

44°49'00.000" N
62°20'00.000" W
16.00 m
8200558
71403
WBV

Download Data

Hourly Data (October 2017)
Hourly Data Report for October 5, 2017
Temp Definition
°C
Dew Point Temp Definition
°C
Rel Hum Definition
%
Wind Dir Definition
10's deg

Wind Spd Definition
km/h
Visibility Definition
km
Stn Press Definition
kPa
Hmdx Definition


Wind Chill Definition


Weather Definition


TIME
00:00 15.3 LegendMM LegendMM 24 49   101.21     LegendNANA
01:00 15.4 LegendMM LegendMM 24 48   101.21     LegendNANA
02:00 15.7 LegendMM LegendMM 24 43   101.13     LegendNANA
03:00 15.9 LegendMM LegendMM 24 49   101.07     LegendNANA
04:00 16.1 LegendMM LegendMM 24 52   101.02     LegendNANA
05:00 16.1 LegendMM LegendMM 24 53   100.99     LegendNANA
06:00 16.2 LegendMM LegendMM 24 50   100.96     LegendNANA
07:00 16.3 LegendMM LegendMM 24 45   100.94     LegendNANA
08:00 16.7 LegendMM LegendMM 25 37   101.01     LegendNANA
09:00 17.2 LegendMM LegendMM 24 33   101.00     LegendNANA
10:00 17.6 LegendMM LegendMM 24 33   101.01     LegendNANA
11:00 17.9 LegendMM LegendMM 24 32   101.01     LegendNANA
12:00 18.0 LegendMM LegendMM 24 32   101.00     LegendNANA
13:00 17.9 LegendMM LegendMM 23 34   100.93     LegendNANA
14:00 17.9 LegendMM LegendMM 23 35   100.92     LegendNANA
15:00 17.6 LegendMM LegendMM 23 37   100.91     LegendNANA
16:00 17.7 LegendMM LegendMM 24 33   100.96     LegendNANA
17:00 17.2 LegendMM LegendMM 24 28   100.97     LegendNANA
18:00 16.8 LegendMM LegendMM 26 19   101.00     LegendNANA
19:00 16.6 LegendMM LegendMM 25 24   101.08     LegendNANA
20:00 16.2 LegendMM LegendMM 28 15   101.15     LegendNANA
21:00 15.4 LegendMM LegendMM 27 10   101.17     LegendNANA
22:00 14.9 LegendMM LegendMM 26 11   101.18     LegendNANA
23:00 15.4 LegendMM LegendMM 25 10   101.21     LegendNANA

Notes on Data Quality.

Legend

  • E = Estimated
  • M = Missing
  • NA = Not Available
  • ‡ = Partner data that is not subject to review by the National Climate Archives
Date modified: